Tracking 19827 objects as of 23-Aug-2019
HD Live streaming from Space Station
objects crossing your sky now

FENGYUN 1C DEB

Track FENGYUN 1C DEB now!
10-day predictions


NORAD ID: 37418
Int'l Code: 1999-025EGL
Perigee: 860.9 km
Apogee: 2,600.9 km
Inclination: 98.6 °
Period: 121.0 minutes
Semi major axis: 8101 km
RCS: 0.0014 m2 (small)
Launch date: May 10, 1999
Source: People's Republic of China (PRC)
Launch site: Taiyaun Space Center, China (TSC)

Note: This is SATELLITE DEBRIS
aabbcc
Your satellite tracking list
Your tracking list is empty




NASA's NSSDC Master Catalog

Two Line Element Set (TLE):
1 37418U 99025EGL 19231.23388515  .00000887  00000-0  24174-2 0  9992
2 37418  98.6224 149.5011 1073816 174.5265 186.8711 11.90482682431116
Source of the keplerian elements: AFSPC